• In Germany
  • List of Countries
  • For 7 days
  • Water Temperature
  • Satellite Maps
  • Weather Map
  • Weather Widgets
  • user-avatar
    Login

    Hourly Weather Bugunda

    Today, 22 April, Sunday

    Time Temperature Precipitation Wind Pressure Humidity
    00:00 +2°C° 0 mm 0 mps 698 mmHg 51%
    01:00 +2°C° 0 mm 0 mps 699 mmHg 53%
    02:00 +2°C° 0 mm 1 mps 699 mmHg 54%
    03:00 +2°C° 0 mm 1 mps 699 mmHg 57%
    04:00 +1°C° 0 mm 1 mps 699 mmHg 59%
    05:00 +1°C° 0 mm 1 mps 699 mmHg 61%
    06:00 +3°C° 0 mm 1 mps 700 mmHg 54%
    07:00 +6°C° 0 mm 1 mps 700 mmHg 46%
    08:00 +9°C° 0 mm 1 mps 701 mmHg 38%
    09:00 +11°C° 0 mm 1 mps 700 mmHg 34%
    10:00 +13°C° 0 mm 2 mps 700 mmHg 29%
    11:00 +14°C° 0 mm 3 mps 700 mmHg 25%
    12:00 +16°C° 0 mm 3 mps 699 mmHg 23%
    13:00 +17°C° 0 mm 3 mps 699 mmHg 21%
    14:00 +17°C° 0 mm 3 mps 699 mmHg 19%
    15:00 +17°C° 0 mm 3 mps 699 mmHg 19%
    16:00 +17°C° 0 mm 4 mps 698 mmHg 20%
    17:00 +17°C° 0 mm 4 mps 698 mmHg 20%
    18:00 +14°C° 0 mm 3 mps 698 mmHg 25%
    19:00 +13°C° 0 mm 2 mps 698 mmHg 31%
    20:00 +11°C° 0 mm 1 mps 697 mmHg 36%
    21:00 +10°C° 0 mm 1 mps 697 mmHg 40%
    22:00 +8°C° 0 mm 1 mps 698 mmHg 44%
    23:00 +7°C° 0 mm 1 mps 698 mmHg 48%

    Tomorrow, 23 April, Monday

    Time Temperature Precipitation Wind Pressure Humidity
    00:00 +7°C° 0 mm 1 mps 698 mmHg 50%
    01:00 +6°C° 0 mm 1 mps 698 mmHg 52%
    02:00 +6°C° 0 mm 1 mps 698 mmHg 55%
    03:00 +6°C° 0 mm 1 mps 697 mmHg 57%
    04:00 +4°C° 0 mm 2 mps 697 mmHg 59%
    05:00 +4°C° 0 mm 2 mps 697 mmHg 61%
    06:00 +5°C° 0 mm 3 mps 697 mmHg 53%
    07:00 +8°C° 0 mm 3 mps 697 mmHg 44%
    08:00 +11°C° 0 mm 4 mps 697 mmHg 35%
    09:00 +12°C° 0 mm 5 mps 697 mmHg 32%
    10:00 +14°C° 0 mm 5 mps 696 mmHg 28%
    11:00 +16°C° 0 mm 6 mps 696 mmHg 24%
    12:00 +17°C° 0 mm 6 mps 695 mmHg 22%
    13:00 +17°C° 0 mm 6 mps 695 mmHg 21%
    14:00 +19°C° 0 mm 6 mps 695 mmHg 19%
    15:00 +19°C° 0 mm 5 mps 694 mmHg 19%
    16:00 +17°C° 0 mm 5 mps 694 mmHg 19%
    17:00 +18°C° 0 mm 4 mps 694 mmHg 19%
    18:00 +16°C° 0 mm 3 mps 694 mmHg 24%
    19:00 +13°C° 0 mm 3 mps 694 mmHg 29%
    20:00 +12°C° 0 mm 2 mps 694 mmHg 34%
    21:00 +10°C° 0 mm 2 mps 694 mmHg 38%
    22:00 +10°C° 0 mm 1 mps 694 mmHg 42%
    23:00 +9°C° 0 mm 1 mps 694 mmHg 45%

    Day after tomorrow, 24 April, Tuesday

    Time Temperature Precipitation Wind Pressure Humidity
    00:00 +8°C° 0 mm 1 mps 694 mmHg 47%
    01:00 +8°C° 0 mm 1 mps 694 mmHg 50%
    02:00 +7°C° 0 mm 1 mps 693 mmHg 52%
    03:00 +7°C° 0 mm 1 mps 693 mmHg 52%
    04:00 +6°C° 0 mm 2 mps 693 mmHg 52%
    05:00 +6°C° 0 mm 2 mps 693 mmHg 52%
    06:00 +8°C° 0 mm 2 mps 693 mmHg 47%
    07:00 +9°C° 0 mm 2 mps 693 mmHg 42%
    08:00 +12°C° 0 mm 2 mps 692 mmHg 37%
    09:00 +13°C° 0 mm 3 mps 692 mmHg 33%
    10:00 +17°C° 0 mm 4 mps 692 mmHg 28%
    11:00 +19°C° 0 mm 4 mps 691 mmHg 24%
    12:00 +20°C° 0 mm 4 mps 691 mmHg 22%
    13:00 +21°C° 0 mm 5 mps 690 mmHg 21%
    14:00 +22°C° 0 mm 5 mps 689 mmHg 20%
    15:00 +22°C° 0 mm 5 mps 689 mmHg 21%
    16:00 +22°C° 0 mm 5 mps 688 mmHg 22%
    17:00 +21°C° 0 mm 5 mps 687 mmHg 24%
    18:00 +19°C° 0 mm 4 mps 687 mmHg 28%
    19:00 +17°C° 0 mm 3 mps 687 mmHg 33%
    20:00 +15°C° 0 mm 2 mps 687 mmHg 38%
    21:00 +14°C° 0 mm 2 mps 687 mmHg 41%
    22:00 +14°C° 0 mm 1 mps 687 mmHg 44%
    23:00 +13°C° 0 mm 1 mps 687 mmHg 47%

    25 April, Wednesday

    Time Temperature Precipitation Wind Pressure Humidity
    00:00 +12°C° 0.1 mm 1 mps 686 mmHg 53%
    01:00 +11°C° 0.1 mm 1 mps 686 mmHg 59%
    02:00 +10°C° 0.1 mm 1 mps 686 mmHg 65%
    03:00 +9°C° 0.4 mm 1 mps 686 mmHg 69%
    04:00 +7°C° 0.4 mm 2 mps 686 mmHg 74%
    05:00 +6°C° 0.4 mm 2 mps 686 mmHg 78%
    06:00 +4°C° 0.4 mm 3 mps 687 mmHg 77%
    07:00 +4°C° 0.4 mm 3 mps 687 mmHg 76%
    08:00 +3°C° 0.4 mm 4 mps 688 mmHg 74%
    09:00 +4°C° 0 mm 4 mps 688 mmHg 64%
    10:00 +7°C° 0 mm 3 mps 689 mmHg 53%
    11:00 +8°C° 0 mm 3 mps 689 mmHg 42%
    12:00 +9°C° 0 mm 3 mps 690 mmHg 38%
    13:00 +10°C° 0 mm 3 mps 690 mmHg 33%
    14:00 +11°C° 0 mm 3 mps 690 mmHg 29%
    15:00 +11°C° 0 mm 3 mps 690 mmHg 27%
    16:00 +11°C° 0 mm 3 mps 690 mmHg 25%
    17:00 +11°C° 0 mm 3 mps 690 mmHg 23%
    18:00 +9°C° 0 mm 2 mps 690 mmHg 26%
    19:00 +7°C° 0 mm 2 mps 691 mmHg 29%
    20:00 +5°C° 0 mm 2 mps 691 mmHg 32%
    21:00 +4°C° 0 mm 1 mps 692 mmHg 35%
    22:00 +3°C° 0 mm 1 mps 692 mmHg 37%
    23:00 +2°C° 0 mm 1 mps 693 mmHg 39%

    26 April, Thursday

    Time Temperature Precipitation Wind Pressure Humidity
    00:00 +1°C° 0 mm 1 mps 693 mmHg 39%
    01:00 -1°C° 0 mm 0 mps 693 mmHg 40%
    02:00 -2°C° 0 mm 0 mps 693 mmHg 40%
    03:00 -2°C° 0 mm 0 mps 693 mmHg 40%
    04:00 -3°C° 0 mm 0 mps 693 mmHg 40%
    05:00 -3°C° 0 mm 0 mps 693 mmHg 41%
    06:00 0°C° 0 mm 0 mps 693 mmHg 34%
    07:00 +3°C° 0 mm 1 mps 694 mmHg 28%
    08:00 +6°C° 0 mm 1 mps 694 mmHg 22%
    09:00 +8°C° 0 mm 1 mps 694 mmHg 23%
    10:00 +9°C° 0 mm 2 mps 693 mmHg 23%
    11:00 +13°C° 0 mm 2 mps 693 mmHg 23%
    12:00 +13°C° 0 mm 3 mps 692 mmHg 23%
    13:00 +14°C° 0 mm 3 mps 691 mmHg 22%
    14:00 +16°C° 0 mm 3 mps 690 mmHg 22%
    15:00 +17°C° 0 mm 3 mps 690 mmHg 23%
    16:00 +17°C° 0 mm 3 mps 689 mmHg 24%
    17:00 +18°C° 0 mm 3 mps 689 mmHg 25%
    18:00 +16°C° 0 mm 3 mps 688 mmHg 33%
    19:00 +14°C° 0 mm 2 mps 688 mmHg 42%
    20:00 +12°C° 0 mm 2 mps 688 mmHg 51%
    21:00 +10°C° 0.1 mm 2 mps 688 mmHg 58%
    22:00 +9°C° 0.1 mm 2 mps 688 mmHg 65%
    23:00 +8°C° 0.1 mm 2 mps 688 mmHg 71%

    27 April, Friday

    Time Temperature Precipitation Wind Pressure Humidity
    00:00 +7°C° 0 mm 2 mps 689 mmHg 70%
    01:00 +7°C° 0 mm 2 mps 689 mmHg 68%
    02:00 +5°C° 0 mm 3 mps 689 mmHg 67%
    03:00 +4°C° 0 mm 3 mps 689 mmHg 65%
    04:00 +5°C° 0 mm 2 mps 689 mmHg 64%
    05:00 +5°C° 0 mm 2 mps 690 mmHg 62%
    06:00 +5°C° 0 mm 3 mps 690 mmHg 55%
    07:00 +6°C° 0 mm 4 mps 690 mmHg 48%
    08:00 +7°C° 0 mm 5 mps 690 mmHg 40%
    09:00 +9°C° 0 mm 5 mps 690 mmHg 36%
    10:00 +10°C° 0 mm 6 mps 690 mmHg 31%
    11:00 +11°C° 0 mm 6 mps 689 mmHg 26%
    12:00 +11°C° 0 mm 6 mps 689 mmHg 28%
    13:00 +11°C° 0 mm 6 mps 689 mmHg 29%
    14:00 +10°C° 0 mm 6 mps 689 mmHg 31%
    15:00 +10°C° 0 mm 7 mps 689 mmHg 28%
    16:00 +10°C° 0 mm 7 mps 690 mmHg 26%
    17:00 +9°C° 0 mm 7 mps 690 mmHg 24%
    18:00 +8°C° 0 mm 6 mps 690 mmHg 28%
    19:00 +6°C° 0 mm 4 mps 691 mmHg 33%
    20:00 +4°C° 0 mm 3 mps 691 mmHg 37%
    21:00 +4°C° 0 mm 2 mps 691 mmHg 41%
    22:00 +3°C° 0 mm 2 mps 691 mmHg 45%
    23:00 +3°C° 0 mm 1 mps 692 mmHg 49%
    Show more